N9CQS-15 Weather Reports


time (UTC)temp
C
wind
direction
speed
KPH
gust
KPH
rain 1hr
cm
rain 24hr
cm
rain mn
cm
humidity
%
barometer
mb
20260905223901 32 23 8.0 9.7 0.00 0.00 0.00 64 1011.8
20260905222902 32 338 8.0 9.7 0.00 0.00 0.00 63 1011.5
20260905221902 33 23 6.4 9.7 0.00 0.00 0.00 63 1011.5
20260905220902 33 23 6.4 6.4 0.00 0.00 0.00 63 1011.5
20260905214902 33 0 6.4 11.3 0.00 0.00 0.00 63 1011.5
20260905213902 33 23 6.4 8.0 0.00 0.00 0.00 63 1011.5
20260905212901 33 0 9.7 9.7 0.00 0.00 0.00 62 1011.5
20260905211901 33 23 3.2 8.0 0.00 0.00 0.00 62 1011.5
20260905210902 33 338 4.8 4.8 0.00 0.00 0.00 61 1011.8
20260905204901 34 0 6.4 9.7 0.00 0.00 0.00 60 1011.8
20260905203902 35 293 6.4 6.4 0.00 0.00 0.00 58 1011.8
20260905202902 35 338 4.8 6.4 0.00 0.00 0.00 58 1011.8
20260905201901 34 293 6.4 9.7 0.00 0.00 0.00 57 1011.8
20260905200902 35 315 6.4 6.4 0.00 0.00 0.00 55 1011.8
20260905194902 35 293 4.8 8.0 0.00 0.00 0.00 54 1011.8
20260905193901 35 270 3.2 8.0 0.00 0.00 0.00 56 1012.1
20260905192902 33 293 6.4 8.0 0.00 0.00 0.00 59 1012.1
20260905191901 35 293 9.7 9.7 0.00 0.00 0.00 55 1012.1
20260905190901 35 293 8.0 8.0 0.00 0.00 0.00 54 1012.5
20260905184902 35 23 6.4 6.4 0.00 0.00 0.00 56 1012.5
20260905183901 33 315 4.8 6.4 0.00 0.00 0.00 61 1012.5
20260905182902 33 293 6.4 6.4 0.00 0.00 0.00 59 1012.8
20260905181901 35 293 6.4 8.0 0.00 0.00 0.00 57 1012.8
20260905180901 36 293 6.4 6.4 0.00 0.00 0.00 53 1012.8
20260905174902 36 315 6.4 6.4 0.00 0.00 0.00 53 1012.8
20260905173901 35 293 6.4 9.7 0.00 0.00 0.00 54 1012.8
20260905172902 35 315 6.4 8.0 0.00 0.00 0.00 54 1013.2
20260905171902 35 293 6.4 8.0 0.00 0.00 0.00 56 1013.2
20260905170901 35 270 6.4 6.4 0.00 0.00 0.00 55 1013.2
20260905170101 34 293 8.0 9.7 0.00 0.00 0.00 57 1013.2
20260905164902 35 270 3.2 4.8 0.00 0.00 0.00 60 1013.2
20260905163901 35 203 3.2 6.4 0.00 0.00 0.00 59 1013.2
20260905162902 34 293 6.4 6.4 0.00 0.00 0.00 59 1013.5
20260905161901 33 270 1.6 6.4 0.00 0.00 0.00 64 1013.2
20260905160902 34 225 3.2 3.2 0.00 0.00 0.00 61 1013.5
20260905154902 32 248 3.2 4.8 0.00 0.00 0.00 67 1013.5
20260905153902 32 270 3.2 4.8 0.00 0.00 0.00 66 1013.5
20260905152901 32 293 4.8 4.8 0.00 0.00 0.00 67 1013.2
20260905151902 32 270 3.2 4.8 0.00 0.00 0.00 69 1013.2
20260905150902 31 270 3.2 3.2 0.00 0.00 0.00 67 1013.2
20260905144902 30 225 4.8 4.8 0.00 0.00 0.00 72 1013.2
20260905143901 30 270 3.2 4.8 0.00 0.00 0.00 74 1013.2
20260905142901 29 293 6.4 6.4 0.00 0.00 0.00 75 1013.2
20260905141902 28 203 1.6 4.8 0.00 0.00 0.00 77 1013.2
20260905140901 28 248 3.2 3.2 0.00 0.00 0.00 77 1013.5
20260905134902 27 225 4.8 4.8 0.00 0.00 0.00 77 1013.2
20260905133901 27 203 3.2 4.8 0.00 0.00 0.00 80 1013.2
20260905132902 26 248 1.6 4.8 0.00 0.00 0.00 81 1013.2
20260905131901 26 180 4.8 4.8 0.00 0.00 0.00 81 1013.2
20260905130902 26 180 0.0 0.0 0.00 0.00 0.00 82 1013.5
20260905124901 25 203 0.0 3.2 0.00 0.00 0.00 83 1013.2
20260905123901 25 180 0.0 3.2 0.00 0.00 0.00 83 1013.2
20260905122902 25 180 3.2 3.2 0.00 0.00 0.00 83 1013.2
20260905121901 25 135 0.0 0.0 0.00 0.00 0.00 84 1013.2
20260905120902 25 180 0.0 0.0 0.00 0.00 0.00 85 1013.2
20260905114902 24 180 0.0 0.0 0.00 0.00 0.00 86 1012.8
20260905113901 24 180 0.0 0.0 0.00 0.00 0.00 86 1012.8
20260905112902 24 180 0.0 0.0 0.00 0.00 0.00 86 1012.8
20260905111902 24 180 0.0 0.0 0.00 0.00 0.00 86 1012.5
20260905110902 24 203 0.0 0.0 0.00 0.00 0.00 86 1012.8
20260905104902 24 180 0.0 0.0 0.00 0.00 0.00 86 1012.8
20260905103901 24 180 0.0 0.0 0.00 0.00 0.00 86 1012.8
20260905102902 24 180 0.0 0.0 0.00 0.00 0.00 86 1012.8
20260905101901 24 180 0.0 0.0 0.00 0.00 0.00 86 1012.8
20260905100902 24 225 0.0 0.0 0.00 0.00 0.00 86 1012.8
20260905094902 24 270 0.0 0.0 0.00 0.00 0.00 86 1012.8
20260905093901 24 180 0.0 0.0 0.00 0.00 0.00 86 1012.8
20260905092902 24 293 0.0 0.0 0.00 0.00 0.00 86 1012.8
20260905091902 24 180 0.0 3.2 0.00 0.00 0.00 86 1012.8
20260905090901 24 180 0.0 0.0 0.00 0.00 0.00 85 1012.8
20260905084902 24 270 0.0 0.0 0.00 0.00 0.00 85 1012.5
20260905083901 25 180 0.0 0.0 0.00 0.00 0.00 84 1012.5
20260905082902 25 180 0.0 0.0 0.00 0.00 0.00 84 1012.5
20260905081902 25 158 0.0 0.0 0.00 0.00 0.00 84 1012.5
20260905080902 25 180 0.0 0.0 0.00 0.00 0.00 84 1012.5
20260905080101 25 180 0.0 0.0 0.00 0.00 0.00 84 1012.5
20260905074901 25 180 0.0 0.0 0.00 0.00 0.00 85 1012.1
20260905073901 25 203 0.0 0.0 0.00 0.00 0.00 85 1012.5
20260905072902 25 158 0.0 0.0 0.00 0.00 0.00 85 1012.5
20260905071902 25 180 0.0 0.0 0.00 0.00 0.00 85 1012.5
20260905070901 25 180 0.0 0.0 0.00 0.00 0.00 84 1012.8
20260905070101 25 180 0.0 0.0 0.00 0.00 0.00 84 1012.8
20260905064901 25 180 0.0 0.0 0.00 0.00 0.00 84 1012.8
20260905063902 25 180 0.0 0.0 0.00 0.00 0.00 84 1012.8
20260905062902 25 203 0.0 0.0 0.00 0.00 0.00 84 1012.8
20260905061901 25 158 0.0 0.0 0.00 0.00 0.00 84 1012.8
20260905060902 25 180 0.0 0.0 0.00 0.00 0.00 84 1012.8
20260905054902 25 270 0.0 0.0 0.00 0.00 0.00 83 1012.8
20260905053901 25 225 0.0 0.0 0.00 0.00 0.00 82 1012.8
20260905052901 25 203 0.0 0.0 0.00 0.00 0.00 82 1012.8
20260905051902 25 203 0.0 0.0 0.00 0.00 0.00 81 1012.8
20260905050901 26 180 0.0 0.0 0.00 0.00 0.00 81 1012.8
20260905044901 26 203 0.0 0.0 0.00 0.00 0.00 79 1013.2
20260905043902 26 315 0.0 0.0 0.00 0.00 0.00 79 1013.2
20260905042901 26 180 0.0 0.0 0.00 0.00 0.00 79 1013.2
20260905041901 26 293 0.0 0.0 0.00 0.00 0.00 78 1013.2
20260905040901 27 180 0.0 0.0 0.00 0.00 0.00 78 1013.2
20260905034901 27 180 0.0 0.0 0.00 0.00 0.00 77 1013.2
20260905033902 27 180 0.0 0.0 0.00 0.00 0.00 77 1013.2
20260905032901 27 203 0.0 0.0 0.00 0.00 0.00 76 1013.2
20260905031902 28 45 0.0 3.2 0.00 0.00 0.00 76 1013.2
20260905030902 28 0 0.0 0.0 0.00 0.00 0.00 75 1013.2
20260905024902 28 158 0.0 3.2 0.00 0.00 0.00 74 1013.2
20260905023901 28 135 1.6 3.2 0.00 0.00 0.00 74 1013.2
20260905022903 28 135 0.0 3.2 0.00 0.00 0.00 74 1012.8
20260905021901 28 203 0.0 3.2 0.00 0.00 0.00 74 1012.8
20260905020902 28 68 3.2 3.2 0.00 0.00 0.00 75 1012.8
20260905014901 28 293 0.0 6.4 0.00 0.00 0.00 74 1012.8
20260905013902 29 180 0.0 3.2 0.00 0.00 0.00 71 1012.5
20260905012902 30 158 0.0 1.6 0.00 0.00 0.00 71 1012.5
20260905011901 30 180 0.0 3.2 0.00 0.00 0.00 69 1012.5
20260905010902 30 180 0.0 0.0 0.00 0.00 0.00 67 1012.5
20260905004901 30 90 0.0 3.2 0.00 0.00 0.00 67 1012.1
20260905003902 31 180 0.0 3.2 0.00 0.00 0.00 67 1012.1
20260905002901 31 45 3.2 3.2 0.00 0.00 0.00 68 1012.1
20260905001901 31 45 1.6 1.6 0.00 0.00 0.00 67 1012.1
20260905000902 32 158 0.0 0.0 0.00 0.00 0.00 64 1012.1
20260904234902 32 135 0.0 3.2 0.00 0.00 0.00 63 1012.1
20260904233902 33 203 0.0 0.0 0.00 0.00 0.00 63 1012.1
20260904232901 33 45 0.0 0.0 0.00 0.00 0.00 61 1012.1
20260904231902 33 180 0.0 0.0 0.00 0.00 0.00 59 1012.1
20260904230902 33 225 0.0 0.0 0.00 0.00 0.00 57 1012.1
20260904224902 34 180 0.0 4.8 0.00 0.00 0.00 55 1012.1